Regional Weather Roundup
Issued by NWS

Home | Current Version | Previous Version | Text Only | Print | Product List | Glossary Off
Versions: 1 2 3 4 5 6 7 8 9 10 11 12 13 14 15 16 17 18 19 20 21 22 23 24 25 26 27 28 29 30 31 32 33 34 35 36 37 38 39 40 41 42 43 44 45 46 47 48 49 50

000
ASUS43 KTOP 302159
RWRKS

WEATHER ROUNDUP FOR KANSAS
NATIONAL WEATHER SERVICE GOODLAND KS
500 PM CDT SAT AUG 30 2014

NOTE:  "FAIR" INDICATES FEW OR NO CLOUDS BELOW 12,000 FEET WITH NO
SIGNIFICANT WEATHER AND/OR OBSTRUCTIONS TO VISIBILITY.

KSZ001>006-013>018-027>032-041>047-302300-
NORTHWEST KANSAS

CITY           SKY/WX    TMP DP  RH WIND       PRES   REMARKS
GOODLAND       SUNNY     89  49  25 S13       29.89F
HAYS           MOSUNNY   93  55  27 S18       29.87F
HILL CITY      SUNNY     92  54  27 S13       29.86F
RUSSELL        SUNNY     89  58  34 S18G25    29.86F
$$

KSZ061>065-074>080-084>089-302300-
SOUTHWEST KANSAS

CITY           SKY/WX    TMP DP  RH WIND       PRES   REMARKS
DODGE CITY     SUNNY     91  47  21 S17G23    29.91F
ELKHART          N/A     90  55  30 S16         N/A
GARDEN CITY    SUNNY     90  55  30 SE18G26   29.89F
GREAT BEND     SUNNY     91  54  27 S15G24    29.88F
LIBERAL        SUNNY     97  48  19 S13G26    29.91F
$$

KSZ066>073-081>083-090>101-302300-
SOUTHEAST KANSAS

CITY           SKY/WX    TMP DP  RH WIND       PRES   REMARKS
CHANUTE        SUNNY     94  57  28 VRB3G17   29.86F
COFFEYVILLE    SUNNY     94  62  34 VRB3      29.85F
HUTCHINSON     SUNNY     90  59  35 S9        29.89F
NEWTON         PTSUNNY   91  55  29 SW6       29.93S
PARSONS        MOSUNNY   94  61  33 W5        29.87F
WICHITA INTL   MOSUNNY   93  56  28 VRB3      29.88F
WICHITA JABRA  SUNNY     92  56  29 S5        29.88F
WINFIELD       SUNNY     91  59  33 S3        29.89F
$$

KSZ007>012-019>026-033>040-048>060-102>105-302300-
NORTHEAST KANSAS

CITY           SKY/WX    TMP DP  RH WIND       PRES   REMARKS
CONCORDIA      SUNNY     86  65  49 S7        29.88F
EMPORIA        SUNNY     91  57  31 E3        29.88F
LAWRENCE       SUNNY     92  65  40 CALM      29.87F
MANHATTAN      SUNNY     91  60  35 VRB6      29.86F
OLATHE IND     SUNNY     89  62  40 N5        29.89F
OLATHE EXE     MOSUNNY   88  64  44 E6        29.88F
SALINA         SUNNY     94  55  26 W7        29.87F
TOPEKA BILLARD SUNNY     90  63  40 VRB3      29.87F
TOPEKA FORBES  SUNNY     91  59  33 N7        29.87F
$$


USA.gov is the U.S. government's official web portal to all federal, state and local government web resources and services.